Saguache, CO

4:44 PM MDT on April 25, 2017 (GMT -0600)
Saguache

Weather History for K04V - November, 2012

Change the Weather History Date:

Wednesday, November 7, 2012

  Actual Average (KALS) Record (KALS)
Temperature  
Mean Temperature 48 °F -  
Max Temperature 62 °F 51 °F 69 °F (2009)
Min Temperature 33 °F 16 °F -8 °F (1938)
Degree Days  
Heating Degree Days 18    
Moisture  
Dew Point 14 °F    
Average Humidity 30    
Maximum Humidity 44    
Minimum Humidity 15    
Precipitation  
Precipitation 0.00 in - - ()
Sea Level Pressure  
Sea Level Pressure 30.26 in    
Wind  
Wind Speed 10 mph (NNW)    
Max Wind Speed 16 mph    
Max Gust Speed 17 mph    
Visibility 10 miles    
Events      
Averages and records for this station are not official NWS values.
T = Trace of Precipitation, MM = Missing Value Source: NWS Daily Summary

Daily Weather History Graph

Daily Weather History Graph

Search for Another Location

Airport or City:

Trip Planner

Search our weather history database for the weather conditions in past years. The results will help you decide how hot, cold, wet, or windy it might be!

Date:

Astronomy

Nov. 07, 2012 Rise Set
Actual Time 6:37 AM MST 4:58 PM MST
Civil Twilight 6:09 AM MST 5:26 PM MST
Nautical Twilight 5:38 AM MST 5:57 PM MST
Astronomical Twilight 5:07 AM MST 6:28 PM MST
Moon No Moon Rise 1:03 PM MST (11/7)
Length of Visible Light 11h 16m
Length of Day
10h 21m
Last Quarter, 42% of the Moon is Illuminated
Nov 7
Last Quarter
Nov 13
New
Nov 20
First Quarter
Nov 28
Full
Dec 6
Last Quarter

Hourly Weather History & Observations

Time (MST) Temp. Windchill Dew Point Humidity Pressure Visibility Wind Dir Wind Speed Gust Speed Precip Events Conditions
12:15 AM 41.0 °F 32.8 °F 14.0 °F 33% 30.37 in 10.0 mi NNW 16.1 mph - N/A   Clear
12:35 AM 41.0 °F 33.5 °F 14.0 °F 33% 30.37 in 10.0 mi NNW 13.8 mph - N/A   Clear
12:55 AM 41.0 °F 33.5 °F 14.0 °F 33% 30.36 in 10.0 mi North 13.8 mph - N/A   Clear
1:15 AM 37.4 °F 30.8 °F 14.0 °F 38% 30.36 in 10.0 mi NNW 9.2 mph - N/A   Clear
1:55 AM 35.6 °F 28.0 °F 14.0 °F 41% 30.36 in 10.0 mi North 10.4 mph - N/A   Clear
2:15 AM 37.4 °F 29.3 °F 14.0 °F 38% 30.35 in 10.0 mi NNW 12.7 mph - N/A   Clear
2:35 AM 35.6 °F 32.8 °F 14.0 °F 41% 30.36 in 10.0 mi NW 3.5 mph - N/A   Clear
2:55 AM 37.4 °F 30.3 °F 14.0 °F 38% 30.35 in 10.0 mi NW 10.4 mph - N/A   Clear
3:15 AM 37.4 °F 29.3 °F 14.0 °F 38% 30.35 in 10.0 mi NNW 12.7 mph - N/A   Clear
3:34 AM 35.6 °F 27.5 °F 14.0 °F 41% 30.35 in 10.0 mi North 11.5 mph - N/A   Clear
3:55 AM 33.8 °F 25.8 °F 14.0 °F 44% 30.35 in 10.0 mi NNW 10.4 mph - N/A   Clear
4:14 AM 33.8 °F 27.0 °F 12.2 °F 41% 30.35 in 10.0 mi NNW 8.1 mph - N/A   Clear
4:35 AM 33.8 °F 26.4 °F 14.0 °F 44% 30.36 in 10.0 mi NNW 9.2 mph - N/A   Clear
4:55 AM 33.8 °F 25.8 °F 14.0 °F 44% 30.36 in 10.0 mi NNW 10.4 mph - N/A   Clear
5:15 AM 33.8 °F 25.3 °F 14.0 °F 44% 30.36 in 10.0 mi NNW 11.5 mph - N/A   Clear
5:35 AM 33.8 °F 24.3 °F 14.0 °F 44% 30.35 in 10.0 mi NNW 13.8 mph - N/A   Clear
5:55 AM 33.8 °F 25.3 °F 14.0 °F 44% 30.35 in 10.0 mi NNW 11.5 mph - N/A   Clear
6:15 AM 33.8 °F 24.8 °F 14.0 °F 44% 30.35 in 10.0 mi NNW 12.7 mph - N/A   Clear
6:35 AM 33.8 °F 26.4 °F 14.0 °F 44% 30.35 in 10.0 mi NNW 9.2 mph - N/A   Clear
6:55 AM 33.8 °F 25.3 °F 14.0 °F 44% 30.36 in 10.0 mi NNW 11.5 mph - N/A   Clear
7:15 AM 33.8 °F 24.3 °F 12.2 °F 41% 30.36 in 10.0 mi NNW 13.8 mph - N/A   Clear
7:35 AM 35.6 °F 26.2 °F 14.0 °F 41% 30.36 in 10.0 mi NNW 15.0 mph - N/A   Clear
7:55 AM 37.4 °F 28.9 °F 14.0 °F 38% 30.36 in 10.0 mi NNW 13.8 mph - N/A   Clear
8:15 AM 41.0 °F 33.1 °F 14.0 °F 33% 30.36 in 10.0 mi NW 15.0 mph - N/A   Clear
8:35 AM 42.8 °F 37.0 °F 14.0 °F 31% 30.36 in 10.0 mi NNW 10.4 mph 17.3 mph N/A   Clear
8:55 AM 46.4 °F 41.5 °F 14.0 °F 27% 30.35 in 10.0 mi NW 10.4 mph - N/A   Clear
9:14 AM 46.4 °F 44.3 °F 14.0 °F 27% 30.35 in 10.0 mi WNW 4.6 mph - N/A   Clear
9:35 AM 48.2 °F - 14.0 °F 25% 30.35 in 10.0 mi Calm Calm - N/A   Clear
9:55 AM 50.0 °F - 15.8 °F 26% 30.34 in 10.0 mi Calm Calm - N/A   Clear
10:15 AM 53.6 °F - 15.8 °F 22% 30.33 in 10.0 mi Calm Calm - N/A   Clear
10:35 AM 53.6 °F - 15.8 °F 22% 30.31 in 10.0 mi Calm Calm - N/A   Clear
10:55 AM 55.4 °F - 15.8 °F 21% 30.31 in 10.0 mi South 3.5 mph - N/A   Clear
11:15 AM 59.0 °F - 17.6 °F 20% 30.29 in 10.0 mi South 4.6 mph - N/A   Clear
11:35 AM 59.0 °F - 17.6 °F 20% 30.28 in 10.0 mi SE 6.9 mph - N/A   Clear
11:54 AM 59.0 °F - 15.8 °F 19% 30.26 in 10.0 mi South 6.9 mph - N/A   Clear
12:14 PM 59.0 °F - 15.8 °F 19% 30.24 in 10.0 mi SSE 6.9 mph - N/A   Clear
12:35 PM 60.8 °F - 15.8 °F 17% 30.23 in 10.0 mi SSE 5.8 mph - N/A   Clear
12:55 PM 60.8 °F - 15.8 °F 17% 30.22 in 10.0 mi SSE 8.1 mph - N/A   Clear
1:15 PM 60.8 °F - 14.0 °F 16% 30.21 in 10.0 mi SSE 8.1 mph - N/A   Clear
1:35 PM 60.8 °F - 14.0 °F 16% 30.19 in 10.0 mi SSE 8.1 mph - N/A   Clear
1:55 PM 62.6 °F - 14.0 °F 15% 30.19 in 10.0 mi South 5.8 mph - N/A   Clear
2:15 PM 62.6 °F - 14.0 °F 15% 30.18 in 10.0 mi South 8.1 mph - N/A   Clear
2:35 PM 62.6 °F - 14.0 °F 15% 30.17 in 10.0 mi South 8.1 mph - N/A   Clear
2:55 PM 62.6 °F - 14.0 °F 15% 30.17 in 10.0 mi SSE 4.6 mph - N/A   Clear
3:15 PM 62.6 °F - 14.0 °F 15% 30.17 in 10.0 mi South 5.8 mph - N/A   Clear
3:35 PM 62.6 °F - 14.0 °F 15% 30.17 in 10.0 mi South 6.9 mph - N/A   Clear
3:55 PM 60.8 °F - 14.0 °F 16% 30.17 in 10.0 mi South 8.1 mph - N/A   Clear
4:15 PM 60.8 °F - 14.0 °F 16% 30.17 in 10.0 mi SSE 4.6 mph - N/A   Clear
4:35 PM 59.0 °F - 14.0 °F 17% 30.16 in 10.0 mi SSE 5.8 mph - N/A   Clear
4:55 PM 53.6 °F - 14.0 °F 21% 30.16 in 10.0 mi SE 4.6 mph - N/A   Clear
5:15 PM 50.0 °F - 14.0 °F 24% 30.16 in 10.0 mi SE 4.6 mph - N/A   Clear
5:35 PM 50.0 °F - 14.0 °F 24% 30.16 in 10.0 mi ENE 5.8 mph - N/A   Clear
5:54 PM 44.6 °F 39.2 °F 12.2 °F 27% 30.17 in 10.0 mi NNE 10.4 mph - N/A   Clear
6:14 PM 46.4 °F 41.1 °F 12.2 °F 25% 30.17 in 10.0 mi NNE 11.5 mph - N/A   Clear
6:35 PM 44.6 °F 38.8 °F 14.0 °F 29% 30.17 in 10.0 mi North 11.5 mph - N/A   Clear
6:55 PM 46.4 °F 41.5 °F 12.2 °F 25% 30.17 in 10.0 mi NNE 10.4 mph - N/A   Clear
7:15 PM 44.6 °F 39.2 °F 12.2 °F 27% 30.17 in 10.0 mi North 10.4 mph - N/A   Clear
7:35 PM 44.6 °F 39.7 °F 12.2 °F 27% 30.17 in 10.0 mi NNE 9.2 mph - N/A   Clear
7:55 PM 42.8 °F - 12.2 °F 29% 30.17 in 10.0 mi Calm Calm - N/A   Clear
8:15 PM 42.8 °F - 12.2 °F 29% 30.18 in 10.0 mi Calm Calm - N/A   Clear
8:35 PM 44.6 °F 40.7 °F 12.2 °F 27% 30.18 in 10.0 mi North 6.9 mph - N/A   Clear
8:55 PM 41.0 °F - 12.2 °F 31% 30.18 in 10.0 mi Calm Calm - N/A   Clear
9:15 PM 39.2 °F 33.0 °F 12.2 °F 33% 30.19 in 10.0 mi NNW 9.2 mph - N/A   Clear
9:35 PM 41.0 °F 35.2 °F 12.2 °F 31% 30.19 in 10.0 mi NNW 9.2 mph - N/A   Clear
9:55 PM 41.0 °F 35.8 °F 12.2 °F 31% 30.19 in 10.0 mi NNW 8.1 mph - N/A   Clear
10:15 PM 39.2 °F 33.0 °F 12.2 °F 33% 30.18 in 10.0 mi North 9.2 mph - N/A   Clear
10:35 PM 37.4 °F 29.8 °F 12.2 °F 36% 30.18 in 10.0 mi NNW 11.5 mph - N/A   Clear
10:55 PM 37.4 °F 29.3 °F 14.0 °F 38% 30.18 in 10.0 mi NNW 12.7 mph - N/A   Clear
11:15 PM 37.4 °F 28.9 °F 12.2 °F 36% 30.17 in 10.0 mi NNW 13.8 mph - N/A   Clear
11:35 PM 37.4 °F 29.8 °F 14.0 °F 38% 30.17 in 10.0 mi NNW 11.5 mph - N/A   Clear
11:55 PM 37.4 °F 29.8 °F 12.2 °F 36% 30.17 in 10.0 mi NNW 11.5 mph - N/A   Clear